Time,TemperatureF,DewpointF,PressureIn,WindDirection,WindDirectionDegrees,WindSpeedMPH,WindSpeedGustMPH,Humidity,HourlyPrecipIn,Conditions,Clouds,dailyrainin,SoftwareType,DateUTC
2013-03-26 00:00:00,46.8,36.0,30.31,ESE,115,0.0,0.0,66,0.00,,---,0.00,VWS V14.01,2013-03-26 05:00:00,
2013-03-26 00:05:00,46.9,35.8,30.31,ESE,115,0.0,0.0,65,0.00,,---,0.00,VWS V14.01,2013-03-26 05:05:00,
2013-03-26 00:10:00,47.0,35.9,30.31,ESE,115,0.0,0.0,65,0.00,,---,0.00,VWS V14.01,2013-03-26 05:10:00,
2013-03-26 00:15:00,47.1,36.0,30.31,ESE,115,0.0,0.0,65,0.00,,---,0.00,VWS V14.01,2013-03-26 05:15:00,
2013-03-26 00:20:00,47.3,36.2,30.31,ESE,115,0.0,0.0,65,0.00,,---,0.00,VWS V14.01,2013-03-26 05:20:00,
2013-03-26 00:25:00,47.5,35.9,30.31,ESE,115,0.0,0.0,64,0.00,,---,0.00,VWS V14.01,2013-03-26 05:25:00,
2013-03-26 00:30:00,47.6,35.2,30.31,ESE,115,0.0,0.0,62,0.00,,---,0.00,VWS V14.01,2013-03-26 05:30:00,
2013-03-26 00:35:00,48.1,34.9,30.31,NNE,17,0.0,0.0,60,0.00,,---,0.00,VWS V14.01,2013-03-26 05:35:00,
2013-03-26 00:40:00,48.8,34.7,30.31,NE,45,0.0,0.0,58,0.00,,---,0.00,VWS V14.01,2013-03-26 05:40:00,
2013-03-26 00:45:00,49.6,34.1,30.32,NE,46,0.0,0.0,55,0.00,,---,0.00,VWS V14.01,2013-03-26 05:45:00,
2013-03-26 00:54:00,50.8,33.8,30.32,North,360,2.0,2.0,52,0.00,,---,0.00,VWS V14.01,2013-03-26 05:54:00,
2013-03-26 00:59:00,51.6,34.6,30.31,NE,44,0.0,1.0,52,0.00,,---,0.00,VWS V14.01,2013-03-26 05:59:00,
2013-03-26 01:07:00,52.6,35.0,30.32,NNE,28,0.0,1.0,51,0.00,,---,0.00,VWS V14.01,2013-03-26 06:07:00,
2013-03-26 01:12:00,53.0,34.9,30.32,NNE,24,0.0,2.0,50,0.00,,---,0.00,VWS V14.01,2013-03-26 06:12:00,
2013-03-26 01:17:00,53.3,35.2,30.32,NNE,26,0.0,2.0,50,0.00,,---,0.00,VWS V14.01,2013-03-26 06:17:00,
2013-03-26 01:22:00,53.5,35.3,30.32,NNE,26,0.0,0.0,50,0.00,,---,0.00,VWS V14.01,2013-03-26 06:22:00,
2013-03-26 01:27:00,53.6,35.9,30.32,NNE,24,0.0,0.0,51,0.00,,---,0.00,VWS V14.01,2013-03-26 06:27:00,
2013-03-26 01:32:00,53.5,35.8,30.32,NNE,25,0.0,0.0,51,0.00,,---,0.00,VWS V14.01,2013-03-26 06:32:00,
2013-03-26 01:37:00,53.4,35.7,30.32,NNE,25,0.0,0.0,51,0.00,,---,0.00,VWS V14.01,2013-03-26 06:37:00,
2013-03-26 01:42:00,53.3,35.2,30.32,NNE,15,0.0,3.0,50,0.00,,---,0.00,VWS V14.01,2013-03-26 06:42:00,
2013-03-26 01:47:00,53.5,35.3,30.32,NNE,17,1.0,4.0,50,0.00,,---,0.00,VWS V14.01,2013-03-26 06:47:00,
2013-03-26 01:52:00,53.6,35.4,30.32,NNE,28,0.0,4.0,50,0.00,,---,0.00,VWS V14.01,2013-03-26 06:52:00,
2013-03-26 01:57:00,53.9,35.2,30.32,North,5,1.0,2.0,49,0.00,,---,0.00,VWS V14.01,2013-03-26 06:57:00,
2013-03-26 02:02:00,54.2,35.0,30.32,NE,40,2.0,5.0,48,0.00,,---,0.00,VWS V14.01,2013-03-26 07:02:00,
2013-03-26 02:07:00,54.4,35.7,30.32,NNE,29,1.0,3.0,49,0.00,,---,0.00,VWS V14.01,2013-03-26 07:07:00,
2013-03-26 02:12:00,54.6,36.3,30.32,NNE,19,1.0,4.0,50,0.00,,---,0.00,VWS V14.01,2013-03-26 07:12:00,
2013-03-26 02:17:00,54.9,37.1,30.32,North,10,0.0,3.0,51,0.00,,---,0.00,VWS V14.01,2013-03-26 07:17:00,
2013-03-26 02:22:00,55.1,37.3,30.32,NE,53,0.0,4.0,51,0.00,,---,0.00,VWS V14.01,2013-03-26 07:22:00,
2013-03-26 02:27:00,55.2,37.9,30.32,NNE,19,0.0,3.0,52,0.00,,---,0.00,VWS V14.01,2013-03-26 07:27:00,
2013-03-26 02:32:00,55.3,37.5,30.32,NE,36,0.0,0.0,51,0.00,,---,0.00,VWS V14.01,2013-03-26 07:32:00,
2013-03-26 02:37:00,55.4,36.6,30.32,NE,51,5.0,6.0,49,0.00,,---,0.00,VWS V14.01,2013-03-26 07:37:00,
2013-03-26 02:42:00,55.5,35.6,30.31,East,83,3.0,4.0,47,0.00,,---,0.00,VWS V14.01,2013-03-26 07:42:00,
2013-03-26 02:47:00,55.5,35.1,30.31,ESE,122,0.0,5.0,46,0.00,,---,0.00,VWS V14.01,2013-03-26 07:47:00,
2013-03-26 02:52:00,55.5,34.5,30.31,ENE,69,2.0,7.0,45,0.00,,---,0.00,VWS V14.01,2013-03-26 07:52:00,
2013-03-26 02:57:00,55.4,33.9,30.31,ESE,103,3.0,3.0,44,0.00,,---,0.00,VWS V14.01,2013-03-26 07:57:00,
2013-03-26 03:02:00,55.5,34.0,30.31,ENE,57,0.0,1.0,44,0.00,,---,0.00,VWS V14.01,2013-03-26 08:02:00,
2013-03-26 03:07:00,55.5,32.8,30.31,North,355,0.0,3.0,42,0.00,,---,0.00,VWS V14.01,2013-03-26 08:07:00,
2013-03-26 03:12:00,55.5,32.2,30.31,NNE,24,1.0,1.0,41,0.00,,---,0.00,VWS V14.01,2013-03-26 08:12:00,
2013-03-26 03:17:00,55.5,31.6,30.31,ENE,68,0.0,1.0,40,0.00,,---,0.00,VWS V14.01,2013-03-26 08:17:00,
2013-03-26 03:22:00,55.6,32.3,30.31,NE,45,0.0,0.0,41,0.00,,---,0.00,VWS V14.01,2013-03-26 08:22:00,
2013-03-26 03:27:00,55.6,32.9,30.31,ENE,58,5.0,5.0,42,0.00,,---,0.00,VWS V14.01,2013-03-26 08:27:00,
2013-03-26 03:32:00,55.6,34.6,30.31,NE,34,3.0,6.0,45,0.00,,---,0.00,VWS V14.01,2013-03-26 08:32:00,
2013-03-26 03:37:00,55.5,35.1,30.31,East,82,0.0,6.0,46,0.00,,---,0.00,VWS V14.01,2013-03-26 08:37:00,
2013-03-26 03:42:00,55.4,35.0,30.31,NW,306,4.0,4.0,46,0.00,,---,0.00,VWS V14.01,2013-03-26 08:42:00,
2013-03-26 03:47:00,55.4,35.0,30.31,NNE,13,3.0,3.0,46,0.00,,---,0.00,VWS V14.01,2013-03-26 08:47:00,
2013-03-26 03:52:00,55.3,33.8,30.31,NE,51,10.0,10.0,44,0.00,,---,0.00,VWS V14.01,2013-03-26 08:52:00,
2013-03-26 03:57:00,55.2,33.1,30.31,ENE,78,1.0,9.0,43,0.00,,---,0.00,VWS V14.01,2013-03-26 08:57:00,
2013-03-26 04:02:00,55.2,33.7,30.31,ENE,65,5.0,5.0,44,0.00,,---,0.00,VWS V14.01,2013-03-26 09:02:00,
2013-03-26 04:07:00,55.1,34.7,30.31,NNE,25,14.0,14.0,46,0.00,,---,0.00,VWS V14.01,2013-03-26 09:07:00,
2013-03-26 04:12:00,55.1,35.8,30.32,ENE,76,0.0,3.0,48,0.00,,---,0.00,VWS V14.01,2013-03-26 09:12:00,
2013-03-26 04:17:00,55.0,36.2,30.32,NE,52,1.0,6.0,49,0.00,,---,0.00,VWS V14.01,2013-03-26 09:17:00,
2013-03-26 04:22:00,54.9,36.1,30.32,East,99,6.0,6.0,49,0.00,,---,0.00,VWS V14.01,2013-03-26 09:22:00,
2013-03-26 04:27:00,54.9,36.1,30.32,NE,55,6.0,6.0,49,0.00,,---,0.00,VWS V14.01,2013-03-26 09:27:00,
2013-03-26 04:32:00,54.9,36.6,30.32,ENE,60,2.0,4.0,50,0.00,,---,0.00,VWS V14.01,2013-03-26 09:32:00,
2013-03-26 04:37:00,54.8,37.0,30.32,SW,236,2.0,5.0,51,0.00,,---,0.00,VWS V14.01,2013-03-26 09:37:00,
2013-03-26 04:42:00,54.8,37.0,30.32,ENE,63,2.0,7.0,51,0.00,,---,0.00,VWS V14.01,2013-03-26 09:42:00,
2013-03-26 04:47:00,54.8,37.5,30.32,NW,322,4.0,4.0,52,0.00,,---,0.00,VWS V14.01,2013-03-26 09:47:00,
2013-03-26 04:52:00,54.7,37.9,30.32,North,355,7.0,10.0,53,0.00,,---,0.00,VWS V14.01,2013-03-26 09:52:00,
2013-03-26 04:57:00,54.7,37.9,30.32,NE,44,2.0,2.0,53,0.00,,---,0.00,VWS V14.01,2013-03-26 09:57:00,
2013-03-26 05:02:00,54.7,38.4,30.33,NNE,20,4.0,5.0,54,0.00,,---,0.00,VWS V14.01,2013-03-26 10:02:00,
2013-03-26 05:07:00,54.6,38.3,30.33,ENE,65,3.0,3.0,54,0.00,,---,0.00,VWS V14.01,2013-03-26 10:07:00,
2013-03-26 05:12:00,54.4,39.0,30.33,NNE,23,0.0,0.0,56,0.00,,---,0.00,VWS V14.01,2013-03-26 10:12:00,
2013-03-26 05:17:00,54.2,39.3,30.33,North,5,1.0,3.0,57,0.00,,---,0.00,VWS V14.01,2013-03-26 10:17:00,
2013-03-26 05:22:00,54.1,39.7,30.33,ENE,74,0.0,2.0,58,0.00,,---,0.00,VWS V14.01,2013-03-26 10:22:00,
2013-03-26 05:27:00,54.0,40.0,30.33,NNE,32,0.0,0.0,59,0.00,,---,0.00,VWS V14.01,2013-03-26 10:27:00,
2013-03-26 05:32:00,54.0,40.0,30.33,North,360,0.0,0.0,59,0.00,,---,0.00,VWS V14.01,2013-03-26 10:32:00,
2013-03-26 05:37:00,53.9,39.5,30.33,North,10,7.0,7.0,58,0.00,,---,0.00,VWS V14.01,2013-03-26 10:37:00,
2013-03-26 05:42:00,53.8,39.4,30.33,North,5,1.0,1.0,58,0.00,,---,0.00,VWS V14.01,2013-03-26 10:42:00,
2013-03-26 05:47:00,53.8,39.4,30.34,ENE,72,4.0,4.0,58,0.00,,---,0.00,VWS V14.01,2013-03-26 10:47:00,
2013-03-26 05:52:00,53.7,39.3,30.34,North,360,0.0,5.0,58,0.00,,---,0.00,VWS V14.01,2013-03-26 10:52:00,
2013-03-26 05:57:00,53.8,39.4,30.34,NE,47,1.0,5.0,58,0.00,,---,0.00,VWS V14.01,2013-03-26 10:57:00,
2013-03-26 06:02:00,53.8,39.4,30.34,ENE,61,0.0,6.0,58,0.00,,---,0.00,VWS V14.01,2013-03-26 11:02:00,
2013-03-26 06:07:00,53.7,39.7,30.34,ENE,60,0.0,1.0,59,0.00,,---,0.00,VWS V14.01,2013-03-26 11:07:00,
2013-03-26 06:12:00,53.7,40.2,30.34,NE,48,0.0,1.0,60,0.00,,---,0.00,VWS V14.01,2013-03-26 11:12:00,
2013-03-26 06:17:00,53.7,40.6,30.34,NNE,30,2.0,5.0,61,0.00,,---,0.00,VWS V14.01,2013-03-26 11:17:00,
2013-03-26 06:22:00,53.6,40.5,30.35,North,350,0.0,9.0,61,0.00,,---,0.00,VWS V14.01,2013-03-26 11:22:00,
2013-03-26 06:27:00,53.6,39.6,30.35,NE,40,5.0,5.0,59,0.00,,---,0.00,VWS V14.01,2013-03-26 11:27:00,
2013-03-26 06:32:00,53.6,39.6,30.35,NE,38,0.0,6.0,59,0.00,,---,0.00,VWS V14.01,2013-03-26 11:32:00,
2013-03-26 06:37:00,53.6,39.6,30.36,NNW,344,2.0,7.0,59,0.00,,---,0.00,VWS V14.01,2013-03-26 11:37:00,
2013-03-26 06:42:00,53.6,39.6,30.36,NNE,22,0.0,2.0,59,0.00,,---,0.00,VWS V14.01,2013-03-26 11:42:00,
2013-03-26 06:47:00,53.5,39.5,30.36,North,5,1.0,3.0,59,0.00,,---,0.00,VWS V14.01,2013-03-26 11:47:00,
2013-03-26 06:52:00,53.3,39.8,30.37,NNE,24,0.0,0.0,60,0.00,,---,0.00,VWS V14.01,2013-03-26 11:52:00,
2013-03-26 06:57:00,53.1,39.6,30.37,North,360,1.0,1.0,60,0.00,,---,0.00,VWS V14.01,2013-03-26 11:57:00,
2013-03-26 07:02:00,52.8,39.7,30.37,ENE,71,0.0,5.0,61,0.00,,---,0.00,VWS V14.01,2013-03-26 12:02:00,
2013-03-26 07:07:00,52.7,39.6,30.37,NNE,30,0.0,0.0,61,0.00,,---,0.00,VWS V14.01,2013-03-26 12:07:00,
2013-03-26 07:12:00,52.6,39.1,30.37,NNE,32,1.0,1.0,60,0.00,,---,0.00,VWS V14.01,2013-03-26 12:12:00,
2013-03-26 07:17:00,52.5,39.5,30.38,ENE,75,0.0,1.0,61,0.00,,---,0.00,VWS V14.01,2013-03-26 12:17:00,
2013-03-26 07:22:00,52.4,39.4,30.38,NNE,15,0.0,2.0,61,0.00,,---,0.00,VWS V14.01,2013-03-26 12:22:00,
2013-03-26 07:27:00,52.4,39.4,30.38,NNW,348,0.0,2.0,61,0.00,,---,0.00,VWS V14.01,2013-03-26 12:27:00,
2013-03-26 07:32:00,52.4,39.8,30.38,ENE,67,5.0,5.0,62,0.00,,---,0.00,VWS V14.01,2013-03-26 12:32:00,
2013-03-26 07:37:00,52.5,39.9,30.38,NE,54,1.0,3.0,62,0.00,,---,0.00,VWS V14.01,2013-03-26 12:37:00,
2013-03-26 07:42:00,52.8,40.2,30.39,ENE,69,0.0,2.0,62,0.00,,---,0.00,VWS V14.01,2013-03-26 12:42:00,
2013-03-26 07:47:00,52.9,40.2,30.39,East,79,0.0,4.0,62,0.00,,---,0.00,VWS V14.01,2013-03-26 12:47:00,
2013-03-26 07:52:00,53.1,40.4,30.39,NE,51,0.0,0.0,62,0.00,,---,0.00,VWS V14.01,2013-03-26 12:52:00,
2013-03-26 07:57:00,53.3,40.6,30.39,ENE,70,0.0,3.0,62,0.00,,---,0.00,VWS V14.01,2013-03-26 12:57:00,
2013-03-26 08:02:00,53.4,40.7,30.39,NNW,343,0.0,3.0,62,0.00,,---,0.00,VWS V14.01,2013-03-26 13:02:00,
2013-03-26 08:07:00,53.8,40.7,30.39,ENE,61,0.0,5.0,61,0.00,,---,0.00,VWS V14.01,2013-03-26 13:07:00,
2013-03-26 08:12:00,54.2,40.6,30.39,North,355,0.0,1.0,60,0.00,,---,0.00,VWS V14.01,2013-03-26 13:12:00,
2013-03-26 08:17:00,54.5,40.9,30.39,North,9,0.0,2.0,60,0.00,,---,0.00,VWS V14.01,2013-03-26 13:17:00,
2013-03-26 08:22:00,54.8,40.3,30.40,NNE,27,1.0,4.0,58,0.00,,---,0.00,VWS V14.01,2013-03-26 13:22:00,
2013-03-26 08:27:00,55.3,40.3,30.40,NE,51,0.0,0.0,57,0.00,,---,0.00,VWS V14.01,2013-03-26 13:27:00,
2013-03-26 08:32:00,55.9,40.0,30.40,ENE,71,2.0,4.0,55,0.00,,---,0.00,VWS V14.01,2013-03-26 13:32:00,
2013-03-26 08:37:00,56.7,41.2,30.40,ENE,62,2.0,3.0,56,0.00,,---,0.00,VWS V14.01,2013-03-26 13:37:00,
2013-03-26 08:42:00,57.3,41.8,30.41,NNE,27,1.0,1.0,56,0.00,,---,0.00,VWS V14.01,2013-03-26 13:42:00,
2013-03-26 08:47:00,57.7,42.6,30.41,North,9,0.0,4.0,57,0.00,,---,0.00,VWS V14.01,2013-03-26 13:47:00,
2013-03-26 08:52:00,58.2,43.1,30.41,NNE,16,0.0,0.0,57,0.00,,---,0.00,VWS V14.01,2013-03-26 13:52:00,
2013-03-26 08:57:00,58.7,42.6,30.41,North,360,0.0,3.0,55,0.00,,---,0.00,VWS V14.01,2013-03-26 13:57:00,
2013-03-26 09:02:00,59.3,42.2,30.41,ENE,67,3.0,7.0,53,0.00,,---,0.00,VWS V14.01,2013-03-26 14:02:00,
2013-03-26 09:07:00,59.6,42.0,30.41,ENE,76,6.0,6.0,52,0.00,,---,0.00,VWS V14.01,2013-03-26 14:07:00,
2013-03-26 09:12:00,60.0,41.8,30.41,NW,317,2.0,7.0,51,0.00,,---,0.00,VWS V14.01,2013-03-26 14:12:00,
2013-03-26 09:17:00,60.1,40.9,30.41,ENE,59,0.0,5.0,49,0.00,,---,0.00,VWS V14.01,2013-03-26 14:17:00,
2013-03-26 09:22:00,60.2,41.0,30.41,ENE,74,0.0,6.0,49,0.00,,---,0.00,VWS V14.01,2013-03-26 14:22:00,
2013-03-26 09:27:00,60.3,41.1,30.42,NE,44,4.0,10.0,49,0.00,,---,0.00,VWS V14.01,2013-03-26 14:27:00,
2013-03-26 09:32:00,60.6,40.3,30.42,East,84,8.0,13.0,47,0.00,,---,0.00,VWS V14.01,2013-03-26 14:32:00,
2013-03-26 09:37:00,60.8,40.5,30.42,NE,46,2.0,5.0,47,0.00,,---,0.00,VWS V14.01,2013-03-26 14:37:00,
2013-03-26 09:42:00,60.9,40.5,30.42,East,88,4.0,13.0,47,0.00,,---,0.00,VWS V14.01,2013-03-26 14:42:00,
2013-03-26 09:47:00,61.0,41.2,30.42,NE,39,3.0,5.0,48,0.00,,---,0.00,VWS V14.01,2013-03-26 14:47:00,
2013-03-26 09:52:00,61.2,40.8,30.42,North,5,0.0,9.0,47,0.00,,---,0.00,VWS V14.01,2013-03-26 14:52:00,
2013-03-26 09:57:00,61.4,41.0,30.42,NNE,25,0.0,6.0,47,0.00,,---,0.00,VWS V14.01,2013-03-26 14:57:00,
2013-03-26 10:02:00,61.8,41.4,30.42,NNE,28,6.0,6.0,47,0.00,,---,0.00,VWS V14.01,2013-03-26 15:02:00,
2013-03-26 10:07:00,62.3,41.3,30.42,NNE,31,9.0,10.0,46,0.00,,---,0.00,VWS V14.01,2013-03-26 15:07:00,
2013-03-26 10:12:00,62.7,41.1,30.42,East,88,3.0,4.0,45,0.00,,---,0.00,VWS V14.01,2013-03-26 15:12:00,
2013-03-26 10:17:00,63.1,40.3,30.42,NNE,18,8.0,10.0,43,0.00,,---,0.00,VWS V14.01,2013-03-26 15:17:00,
2013-03-26 10:22:00,62.9,38.2,30.42,East,89,9.0,9.0,40,0.00,,---,0.00,VWS V14.01,2013-03-26 15:22:00,
2013-03-26 10:27:00,63.0,39.0,30.42,NE,44,1.0,6.0,41,0.00,,---,0.00,VWS V14.01,2013-03-26 15:27:00,
2013-03-26 10:32:00,62.9,37.6,30.42,WNW,284,0.0,2.0,39,0.00,,---,0.00,VWS V14.01,2013-03-26 15:32:00,
2013-03-26 10:37:00,63.0,39.0,30.42,NE,55,6.0,7.0,41,0.00,,---,0.00,VWS V14.01,2013-03-26 15:37:00,
2013-03-26 10:42:00,63.2,36.5,30.42,ESE,103,3.0,11.0,37,0.00,,---,0.00,VWS V14.01,2013-03-26 15:42:00,
2013-03-26 10:47:00,63.1,35.7,30.42,North,360,11.0,11.0,36,0.00,,---,0.00,VWS V14.01,2013-03-26 15:47:00,
2013-03-26 10:52:00,63.1,40.9,30.42,North,9,6.0,6.0,44,0.00,,---,0.00,VWS V14.01,2013-03-26 15:52:00,
2013-03-26 10:57:00,63.4,40.5,30.42,ENE,68,13.0,13.0,43,0.00,,---,0.00,VWS V14.01,2013-03-26 15:57:00,
2013-03-26 11:02:00,63.6,40.1,30.42,East,91,7.0,12.0,42,0.00,,---,0.00,VWS V14.01,2013-03-26 16:02:00,
2013-03-26 11:07:00,63.6,40.1,30.42,ENE,75,2.0,2.0,42,0.00,,---,0.00,VWS V14.01,2013-03-26 16:07:00,
2013-03-26 11:12:00,63.6,38.9,30.42,ENE,76,3.0,9.0,40,0.00,,---,0.00,VWS V14.01,2013-03-26 16:12:00,
2013-03-26 11:17:00,63.6,40.1,30.42,ENE,58,1.0,5.0,42,0.00,,---,0.00,VWS V14.01,2013-03-26 16:17:00,
2013-03-26 11:22:00,63.9,41.0,30.42,ENE,72,9.0,11.0,43,0.00,,---,0.00,VWS V14.01,2013-03-26 16:22:00,
2013-03-26 11:27:00,63.9,40.4,30.42,ESE,102,7.0,9.0,42,0.00,,---,0.00,VWS V14.01,2013-03-26 16:27:00,
2013-03-26 11:32:00,63.8,39.0,30.42,ENE,69,0.0,7.0,40,0.00,,---,0.00,VWS V14.01,2013-03-26 16:32:00,
2013-03-26 11:37:00,63.8,40.9,30.42,NE,35,1.0,5.0,43,0.00,,---,0.00,VWS V14.01,2013-03-26 16:37:00,
2013-03-26 11:42:00,63.7,40.2,30.42,NE,56,12.0,12.0,42,0.00,,---,0.00,VWS V14.01,2013-03-26 16:42:00,
2013-03-26 11:47:00,64.0,37.2,30.42,ESE,123,6.0,7.0,37,0.00,,---,0.00,VWS V14.01,2013-03-26 16:47:00,
2013-03-26 11:52:00,64.1,38.0,30.41,East,84,10.0,11.0,38,0.00,,---,0.00,VWS V14.01,2013-03-26 16:52:00,
2013-03-26 11:57:00,64.3,38.2,30.41,ENE,70,10.0,10.0,38,0.00,,---,0.00,VWS V14.01,2013-03-26 16:57:00,
2013-03-26 12:02:00,64.9,38.7,30.41,NNE,33,9.0,9.0,38,0.00,,---,0.00,VWS V14.01,2013-03-26 17:02:00,
2013-03-26 12:07:00,65.1,38.2,30.41,NNW,336,1.0,7.0,37,0.00,,---,0.00,VWS V14.01,2013-03-26 17:07:00,
2013-03-26 12:12:00,64.6,37.8,30.41,NE,50,4.0,13.0,37,0.00,,---,0.00,VWS V14.01,2013-03-26 17:12:00,
2013-03-26 12:17:00,64.5,39.7,30.40,NE,40,15.0,16.0,40,0.00,,---,0.00,VWS V14.01,2013-03-26 17:17:00,
2013-03-26 12:22:00,64.3,40.1,30.41,North,360,2.0,9.0,41,0.00,,---,0.00,VWS V14.01,2013-03-26 17:22:00,
2013-03-26 12:27:00,64.3,40.1,30.40,ENE,62,12.0,12.0,41,0.00,,---,0.00,VWS V14.01,2013-03-26 17:27:00,
2013-03-26 12:32:00,64.5,40.3,30.40,East,83,13.0,16.0,41,0.00,,---,0.00,VWS V14.01,2013-03-26 17:32:00,
2013-03-26 12:37:00,64.4,38.3,30.40,ESE,105,1.0,4.0,38,0.00,,---,0.00,VWS V14.01,2013-03-26 17:37:00,
2013-03-26 12:42:00,64.9,38.0,30.40,East,99,4.0,7.0,37,0.00,,---,0.00,VWS V14.01,2013-03-26 17:42:00,
2013-03-26 12:47:00,64.7,35.7,30.39,East,96,6.0,14.0,34,0.00,,---,0.00,VWS V14.01,2013-03-26 17:47:00,
2013-03-26 12:52:00,64.3,36.1,30.39,ENE,77,5.0,12.0,35,0.00,,---,0.00,VWS V14.01,2013-03-26 17:52:00,
2013-03-26 12:57:00,64.3,36.8,30.39,NNE,15,2.0,5.0,36,0.00,,---,0.00,VWS V14.01,2013-03-26 17:57:00,
2013-03-26 13:02:00,64.6,36.3,30.39,East,95,6.0,10.0,35,0.00,,---,0.00,VWS V14.01,2013-03-26 18:02:00,
2013-03-26 13:07:00,64.8,35.0,30.39,SE,125,4.0,16.0,33,0.00,,---,0.00,VWS V14.01,2013-03-26 18:07:00,
2013-03-26 13:12:00,64.1,35.9,30.39,East,84,0.0,11.0,35,0.00,,---,0.00,VWS V14.01,2013-03-26 18:12:00,
2013-03-26 13:17:00,64.1,35.9,30.39,ENE,57,4.0,10.0,35,0.00,,---,0.00,VWS V14.01,2013-03-26 18:17:00,
2013-03-26 13:22:00,64.4,36.9,30.39,NNE,15,4.0,10.0,36,0.00,,---,0.00,VWS V14.01,2013-03-26 18:22:00,
2013-03-26 13:27:00,64.4,37.6,30.39,NE,38,7.0,7.0,37,0.00,,---,0.00,VWS V14.01,2013-03-26 18:27:00,
2013-03-26 13:32:00,64.7,37.2,30.38,ENE,75,4.0,4.0,36,0.00,,---,0.00,VWS V14.01,2013-03-26 18:32:00,
2013-03-26 13:37:00,65.0,36.7,30.37,East,86,12.0,15.0,35,0.00,,---,0.00,VWS V14.01,2013-03-26 18:37:00,
2013-03-26 13:42:00,64.3,36.1,30.37,East,98,5.0,6.0,35,0.00,,---,0.00,VWS V14.01,2013-03-26 18:42:00,
2013-03-26 13:47:00,64.7,35.0,30.37,ENE,58,6.0,12.0,33,0.00,,---,0.00,VWS V14.01,2013-03-26 18:47:00,
2013-03-26 13:52:00,65.1,35.3,30.37,NE,42,6.0,9.0,33,0.00,,---,0.00,VWS V14.01,2013-03-26 18:52:00,
2013-03-26 13:57:00,65.2,36.2,30.36,ESE,105,7.0,12.0,34,0.00,,---,0.00,VWS V14.01,2013-03-26 18:57:00,
2013-03-26 14:02:00,65.0,35.2,30.36,NNE,22,9.0,9.0,33,0.00,,---,0.00,VWS V14.01,2013-03-26 19:02:00,
2013-03-26 14:07:00,65.2,35.4,30.36,ENE,71,7.0,10.0,33,0.00,,---,0.00,VWS V14.01,2013-03-26 19:07:00,
2013-03-26 14:12:00,65.2,35.4,30.36,ENE,72,1.0,7.0,33,0.00,,---,0.00,VWS V14.01,2013-03-26 19:12:00,
2013-03-26 14:17:00,65.2,35.4,30.36,ENE,61,5.0,5.0,33,0.00,,---,0.00,VWS V14.01,2013-03-26 19:17:00,
2013-03-26 14:22:00,65.0,32.8,30.36,NNE,31,5.0,11.0,30,0.00,,---,0.00,VWS V14.01,2013-03-26 19:22:00,
2013-03-26 14:27:00,64.6,34.1,30.35,NNE,15,5.0,14.0,32,0.00,,---,0.00,VWS V14.01,2013-03-26 19:27:00,
2013-03-26 14:32:00,64.6,34.1,30.35,East,91,4.0,6.0,32,0.00,,---,0.00,VWS V14.01,2013-03-26 19:32:00,
2013-03-26 14:38:00,64.5,34.0,30.35,NE,49,1.0,9.0,32,0.00,,---,0.00,VWS V14.01,2013-03-26 19:38:00,
2013-03-26 14:43:00,63.8,33.4,30.35,NE,50,3.0,14.0,32,0.00,,---,0.00,VWS V14.01,2013-03-26 19:43:00,
2013-03-26 14:47:00,63.9,33.5,30.35,NE,45,0.0,5.0,32,0.00,,---,0.00,VWS V14.01,2013-03-26 19:47:00,
2013-03-26 14:53:00,64.5,34.0,30.35,ESE,106,1.0,6.0,32,0.00,,---,0.00,VWS V14.01,2013-03-26 19:53:00,
2013-03-26 14:58:00,65.2,35.4,30.35,East,84,11.0,11.0,33,0.00,,---,0.00,VWS V14.01,2013-03-26 19:58:00,
2013-03-26 15:03:00,65.4,34.8,30.35,NE,49,1.0,6.0,32,0.00,,---,0.00,VWS V14.01,2013-03-26 20:03:00,
2013-03-26 15:08:00,65.2,34.6,30.35,ENE,74,6.0,10.0,32,0.00,,---,0.00,VWS V14.01,2013-03-26 20:08:00,
2013-03-26 15:13:00,64.9,33.6,30.35,NE,44,1.0,5.0,31,0.00,,---,0.00,VWS V14.01,2013-03-26 20:13:00,
2013-03-26 15:17:00,64.5,34.0,30.35,ESE,111,9.0,12.0,32,0.00,,---,0.00,VWS V14.01,2013-03-26 20:17:00,
2013-03-26 15:22:00,63.9,34.3,30.34,ENE,65,8.0,8.0,33,0.00,,---,0.00,VWS V14.01,2013-03-26 20:22:00,
2013-03-26 15:27:00,64.3,33.8,30.34,ESE,106,4.0,9.0,32,0.00,,---,0.00,VWS V14.01,2013-03-26 20:27:00,
2013-03-26 15:32:00,63.8,33.4,30.34,ENE,60,6.0,7.0,32,0.00,,---,0.00,VWS V14.01,2013-03-26 20:32:00,
2013-03-26 15:37:00,63.9,34.3,30.33,ESE,107,9.0,12.0,33,0.00,,---,0.00,VWS V14.01,2013-03-26 20:37:00,
2013-03-26 15:42:00,63.1,33.6,30.33,East,97,5.0,6.0,33,0.00,,---,0.00,VWS V14.01,2013-03-26 20:42:00,
2013-03-26 15:47:00,63.4,34.6,30.33,East,92,12.0,12.0,34,0.00,,---,0.00,VWS V14.01,2013-03-26 20:47:00,
2013-03-26 15:52:00,63.1,32.8,30.33,ESE,121,9.0,13.0,32,0.00,,---,0.00,VWS V14.01,2013-03-26 20:52:00,
2013-03-26 15:57:00,62.7,33.2,30.32,ESE,105,5.0,13.0,33,0.00,,---,0.00,VWS V14.01,2013-03-26 20:57:00,
2013-03-26 16:02:00,63.3,33.7,30.32,East,80,5.0,12.0,33,0.00,,---,0.00,VWS V14.01,2013-03-26 21:02:00,
2013-03-26 16:07:00,62.7,34.0,30.32,NE,36,5.0,15.0,34,0.00,,---,0.00,VWS V14.01,2013-03-26 21:07:00,
2013-03-26 16:12:00,62.8,34.0,30.32,ESE,115,6.0,12.0,34,0.00,,---,0.00,VWS V14.01,2013-03-26 21:12:00,
2013-03-26 16:17:00,63.0,33.5,30.32,ESE,114,10.0,11.0,33,0.00,,---,0.00,VWS V14.01,2013-03-26 21:17:00,
2013-03-26 16:22:00,63.1,34.3,30.32,ESE,106,10.0,10.0,34,0.00,,---,0.00,VWS V14.01,2013-03-26 21:22:00,
2013-03-26 16:27:00,62.8,33.3,30.32,ESE,121,3.0,5.0,33,0.00,,---,0.00,VWS V14.01,2013-03-26 21:27:00,
2013-03-26 16:32:00,62.6,33.9,30.32,ESE,107,10.0,13.0,34,0.00,,---,0.00,VWS V14.01,2013-03-26 21:32:00,
2013-03-26 16:37:00,62.2,34.2,30.31,ESE,103,5.0,11.0,35,0.00,,---,0.00,VWS V14.01,2013-03-26 21:37:00,
2013-03-26 16:42:00,62.3,34.3,30.32,ESE,104,6.0,9.0,35,0.00,,---,0.00,VWS V14.01,2013-03-26 21:42:00,
2013-03-26 16:47:00,62.3,33.6,30.32,SE,144,10.0,10.0,34,0.00,,---,0.00,VWS V14.01,2013-03-26 21:47:00,
2013-03-26 16:52:00,62.4,34.4,30.32,SE,126,6.0,12.0,35,0.00,,---,0.00,VWS V14.01,2013-03-26 21:52:00,
2013-03-26 16:57:00,62.2,33.5,30.31,ESE,113,6.0,11.0,34,0.00,,---,0.00,VWS V14.01,2013-03-26 21:57:00,
2013-03-26 17:02:00,62.0,34.8,30.32,SE,130,7.0,11.0,36,0.00,,---,0.00,VWS V14.01,2013-03-26 22:02:00,
2013-03-26 17:07:00,61.9,34.7,30.31,ESE,105,9.0,12.0,36,0.00,,---,0.00,VWS V14.01,2013-03-26 22:07:00,
2013-03-26 17:12:00,61.9,35.4,30.31,East,95,9.0,11.0,37,0.00,,---,0.00,VWS V14.01,2013-03-26 22:12:00,
2013-03-26 17:17:00,61.9,35.4,30.31,East,100,7.0,9.0,37,0.00,,---,0.00,VWS V14.01,2013-03-26 22:17:00,
2013-03-26 17:22:00,61.6,35.1,30.30,East,101,6.0,11.0,37,0.00,,---,0.00,VWS V14.01,2013-03-26 22:22:00,
2013-03-26 17:27:00,61.3,35.5,30.30,ESE,106,4.0,9.0,38,0.00,,---,0.00,VWS V14.01,2013-03-26 22:27:00,
2013-03-26 17:32:00,61.0,35.9,30.30,ESE,102,11.0,13.0,39,0.00,,---,0.00,VWS V14.01,2013-03-26 22:32:00,
2013-03-26 17:37:00,60.9,35.8,30.30,ESE,105,11.0,11.0,39,0.00,,---,0.00,VWS V14.01,2013-03-26 22:37:00,
2013-03-26 17:42:00,60.7,34.3,30.30,East,101,14.0,14.0,37,0.00,,---,0.00,VWS V14.01,2013-03-26 22:42:00,
2013-03-26 17:47:00,60.7,34.3,30.30,ESE,102,10.0,13.0,37,0.00,,---,0.00,VWS V14.01,2013-03-26 22:47:00,
2013-03-26 17:52:00,60.7,35.0,30.30,ESE,121,7.0,9.0,38,0.00,,---,0.00,VWS V14.01,2013-03-26 22:52:00,
2013-03-26 17:57:00,60.8,35.1,30.30,SE,128,9.0,12.0,38,0.00,,---,0.00,VWS V14.01,2013-03-26 22:57:00,
2013-03-26 18:02:00,60.9,34.5,30.30,ESE,113,11.0,11.0,37,0.00,,---,0.00,VWS V14.01,2013-03-26 23:02:00,
2013-03-26 18:07:00,60.8,35.1,30.30,SE,145,11.0,12.0,38,0.00,,---,0.00,VWS V14.01,2013-03-26 23:07:00,
2013-03-26 18:12:00,60.8,37.0,30.30,SE,126,6.0,7.0,41,0.00,,---,0.00,VWS V14.01,2013-03-26 23:12:00,
2013-03-26 18:17:00,60.9,36.4,30.30,SE,138,7.0,9.0,40,0.00,,---,0.00,VWS V14.01,2013-03-26 23:17:00,
2013-03-26 18:22:00,60.8,34.4,30.30,SE,145,8.0,8.0,37,0.00,,---,0.00,VWS V14.01,2013-03-26 23:22:00,
2013-03-26 18:27:00,60.5,35.4,30.30,SE,131,9.0,12.0,39,0.00,,---,0.00,VWS V14.01,2013-03-26 23:27:00,
2013-03-26 18:32:00,60.4,35.3,30.31,ESE,110,6.0,9.0,39,0.00,,---,0.00,VWS V14.01,2013-03-26 23:32:00,
2013-03-26 18:37:00,60.2,35.8,30.30,SE,130,5.0,6.0,40,0.00,,---,0.00,VWS V14.01,2013-03-26 23:37:00,
2013-03-26 18:42:00,60.1,35.7,30.31,SE,132,9.0,12.0,40,0.00,,---,0.00,VWS V14.01,2013-03-26 23:42:00,
2013-03-26 18:47:00,60.0,35.0,30.31,SE,137,4.0,10.0,39,0.00,,---,0.00,VWS V14.01,2013-03-26 23:47:00,
2013-03-26 18:52:00,60.0,36.2,30.31,SE,131,5.0,11.0,41,0.00,,---,0.00,VWS V14.01,2013-03-26 23:52:00,
2013-03-26 18:57:00,59.8,36.1,30.31,SE,139,7.0,7.0,41,0.00,,---,0.00,VWS V14.01,2013-03-26 23:57:00,
2013-03-26 19:02:00,59.8,35.5,30.31,SSE,148,9.0,10.0,40,0.00,,---,0.00,VWS V14.01,2013-03-27 00:02:00,
2013-03-26 19:07:00,59.5,35.8,30.31,SE,144,7.0,9.0,41,0.00,,---,0.00,VWS V14.01,2013-03-27 00:07:00,
2013-03-26 19:12:00,59.2,35.5,30.31,ESE,113,5.0,10.0,41,0.00,,---,0.00,VWS V14.01,2013-03-27 00:12:00,
2013-03-26 19:17:00,58.9,36.5,30.30,SE,135,7.0,9.0,43,0.00,,---,0.00,VWS V14.01,2013-03-27 00:17:00,
2013-03-26 19:22:00,58.7,36.3,30.31,SE,132,0.0,3.0,43,0.00,,---,0.00,VWS V14.01,2013-03-27 00:22:00,
2013-03-26 19:27:00,58.4,35.4,30.31,ESE,110,2.0,9.0,42,0.00,,---,0.00,VWS V14.01,2013-03-27 00:27:00,
2013-03-26 19:32:00,58.2,35.2,30.31,SE,125,2.0,5.0,42,0.00,,---,0.00,VWS V14.01,2013-03-27 00:32:00,
2013-03-26 19:37:00,58.0,35.7,30.31,SE,126,2.0,6.0,43,0.00,,---,0.00,VWS V14.01,2013-03-27 00:37:00,
2013-03-26 19:42:00,57.7,35.4,30.31,North,360,5.0,5.0,43,0.00,,---,0.00,VWS V14.01,2013-03-27 00:42:00,
2013-03-26 19:47:00,57.4,35.7,30.31,SE,133,5.0,5.0,44,0.00,,---,0.00,VWS V14.01,2013-03-27 00:47:00,
2013-03-26 19:52:00,57.1,35.4,30.31,SE,136,5.0,5.0,44,0.00,,---,0.00,VWS V14.01,2013-03-27 00:52:00,
2013-03-26 19:57:00,56.8,35.1,30.31,SSE,150,3.0,4.0,44,0.00,,---,0.00,VWS V14.01,2013-03-27 00:57:00,
2013-03-26 20:02:00,56.4,35.3,30.31,SE,136,2.0,3.0,45,0.00,,---,0.00,VWS V14.01,2013-03-27 01:02:00,
2013-03-26 20:07:00,56.0,35.0,30.31,SE,142,2.0,3.0,45,0.00,,---,0.00,VWS V14.01,2013-03-27 01:07:00,
2013-03-26 20:12:00,55.7,35.3,30.31,SE,142,0.0,0.0,46,0.00,,---,0.00,VWS V14.01,2013-03-27 01:12:00,
2013-03-26 20:17:00,55.3,34.9,30.31,SE,143,0.0,0.0,46,0.00,,---,0.00,VWS V14.01,2013-03-27 01:17:00,
2013-03-26 20:22:00,54.8,35.0,30.31,SE,141,0.0,1.0,47,0.00,,---,0.00,VWS V14.01,2013-03-27 01:22:00,
2013-03-26 20:27:00,54.5,35.2,30.31,SE,144,1.0,3.0,48,0.00,,---,0.00,VWS V14.01,2013-03-27 01:27:00,
2013-03-26 20:32:00,54.2,35.5,30.31,SE,144,1.0,1.0,49,0.00,,---,0.00,VWS V14.01,2013-03-27 01:32:00,
2013-03-26 20:37:00,53.9,35.7,30.31,SE,142,2.0,2.0,50,0.00,,---,0.00,VWS V14.01,2013-03-27 01:37:00,
2013-03-26 20:42:00,53.6,35.9,30.31,SE,142,0.0,1.0,51,0.00,,---,0.00,VWS V14.01,2013-03-27 01:42:00,
2013-03-26 20:47:00,53.3,35.7,30.31,SE,140,2.0,2.0,51,0.00,,---,0.00,VWS V14.01,2013-03-27 01:47:00,
2013-03-26 20:52:00,53.1,35.5,30.31,SSE,149,2.0,3.0,51,0.00,,---,0.00,VWS V14.01,2013-03-27 01:52:00,
2013-03-26 20:57:00,52.8,35.7,30.31,SE,138,0.0,0.0,52,0.00,,---,0.00,VWS V14.01,2013-03-27 01:57:00,
2013-03-26 21:02:00,52.6,35.5,30.31,SE,138,2.0,4.0,52,0.00,,---,0.00,VWS V14.01,2013-03-27 02:02:00,
2013-03-26 21:07:00,52.7,36.1,30.31,SE,136,4.0,4.0,53,0.00,,---,0.00,VWS V14.01,2013-03-27 02:07:00,
2013-03-26 21:12:00,52.8,36.2,30.31,SE,145,1.0,1.0,53,0.00,,---,0.00,VWS V14.01,2013-03-27 02:12:00,
2013-03-26 21:17:00,52.8,36.2,30.31,SE,140,1.0,5.0,53,0.00,,---,0.00,VWS V14.01,2013-03-27 02:17:00,
2013-03-26 21:22:00,52.6,36.0,30.32,SE,146,0.0,0.0,53,0.00,,---,0.00,VWS V14.01,2013-03-27 02:22:00,
2013-03-26 21:27:00,52.1,36.0,30.32,SSE,149,2.0,3.0,54,0.00,,---,0.00,VWS V14.01,2013-03-27 02:27:00,
2013-03-26 21:32:00,51.7,36.1,30.32,SSE,147,0.0,0.0,55,0.00,,---,0.00,VWS V14.01,2013-03-27 02:32:00,
2013-03-26 21:37:00,51.4,35.8,30.32,SSE,153,0.0,0.0,55,0.00,,---,0.00,VWS V14.01,2013-03-27 02:37:00,
2013-03-26 21:42:00,51.0,36.3,30.32,SSE,156,0.0,0.0,57,0.00,,---,0.00,VWS V14.01,2013-03-27 02:42:00,
2013-03-26 21:47:00,50.6,36.4,30.32,SSE,156,1.0,1.0,58,0.00,,---,0.00,VWS V14.01,2013-03-27 02:47:00,
2013-03-26 21:52:00,50.5,36.3,30.32,SSE,155,0.0,0.0,58,0.00,,---,0.00,VWS V14.01,2013-03-27 02:52:00,
2013-03-26 21:57:00,50.4,36.2,30.32,SSE,158,0.0,0.0,58,0.00,,---,0.00,VWS V14.01,2013-03-27 02:57:00,
2013-03-26 22:02:00,50.2,36.0,30.32,SSE,157,0.0,0.0,58,0.00,,---,0.00,VWS V14.01,2013-03-27 03:02:00,
2013-03-26 22:07:00,50.1,36.3,30.32,SSE,157,2.0,4.0,59,0.00,,---,0.00,VWS V14.01,2013-03-27 03:07:00,
2013-03-26 22:12:00,50.1,36.8,30.32,SSE,160,1.0,1.0,60,0.00,,---,0.00,VWS V14.01,2013-03-27 03:12:00,
2013-03-26 22:17:00,50.0,36.7,30.32,SSE,157,1.0,4.0,60,0.00,,---,0.00,VWS V14.01,2013-03-27 03:17:00,
2013-03-26 22:22:00,50.1,36.8,30.32,SSE,159,1.0,1.0,60,0.00,,---,0.00,VWS V14.01,2013-03-27 03:22:00,
2013-03-26 22:27:00,50.1,36.8,30.32,SSE,159,2.0,2.0,60,0.00,,---,0.00,VWS V14.01,2013-03-27 03:27:00,
2013-03-26 22:32:00,50.2,37.3,30.32,SSE,156,0.0,0.0,61,0.00,,---,0.00,VWS V14.01,2013-03-27 03:32:00,
2013-03-26 22:37:00,50.1,37.2,30.32,SSE,157,1.0,1.0,61,0.00,,---,0.00,VWS V14.01,2013-03-27 03:37:00,
2013-03-26 22:42:00,50.1,37.6,30.32,SSE,153,0.0,0.0,62,0.00,,---,0.00,VWS V14.01,2013-03-27 03:42:00,
2013-03-26 22:47:00,50.0,37.5,30.32,SSE,153,3.0,3.0,62,0.00,,---,0.00,VWS V14.01,2013-03-27 03:47:00,
2013-03-26 22:52:00,49.9,37.4,30.32,SSE,152,0.0,1.0,62,0.00,,---,0.00,VWS V14.01,2013-03-27 03:52:00,
2013-03-26 22:57:00,49.8,37.7,30.32,SSE,152,0.0,1.0,63,0.00,,---,0.00,VWS V14.01,2013-03-27 03:57:00,
2013-03-26 23:00:00,49.7,37.6,30.32,SSE,151,0.0,0.0,63,0.00,,---,0.00,VWS V14.01,2013-03-27 04:00:00,
2013-03-26 23:05:00,49.7,37.6,30.32,SSE,148,0.0,1.0,63,0.00,,---,0.00,VWS V14.01,2013-03-27 04:05:00,
2013-03-26 23:10:00,49.8,38.1,30.32,SSE,148,0.0,0.0,64,0.00,,---,0.00,VWS V14.01,2013-03-27 04:10:00,
2013-03-26 23:15:00,49.9,38.2,30.32,SE,146,0.0,0.0,64,0.00,,---,0.00,VWS V14.01,2013-03-27 04:15:00,
2013-03-26 23:20:00,49.9,38.2,30.32,SE,146,0.0,0.0,64,0.00,,---,0.00,VWS V14.01,2013-03-27 04:20:00,
2013-03-26 23:25:00,50.1,38.4,30.32,SE,144,0.0,0.0,64,0.00,,---,0.00,VWS V14.01,2013-03-27 04:25:00,
2013-03-26 23:30:00,50.4,38.7,30.32,SE,144,0.0,0.0,64,0.00,,---,0.00,VWS V14.01,2013-03-27 04:30:00,
2013-03-26 23:35:00,50.4,38.3,30.32,SE,145,0.0,1.0,63,0.00,,---,0.00,VWS V14.01,2013-03-27 04:35:00,
2013-03-26 23:40:00,50.3,38.6,30.32,SE,145,0.0,1.0,64,0.00,,---,0.00,VWS V14.01,2013-03-27 04:40:00,
2013-03-26 23:45:00,50.4,38.7,30.31,SE,143,3.0,3.0,64,0.00,,---,0.00,VWS V14.01,2013-03-27 04:45:00,
2013-03-26 23:50:00,50.6,38.9,30.31,SE,143,0.0,1.0,64,0.00,,---,0.00,VWS V14.01,2013-03-27 04:50:00,
2013-03-26 23:55:00,50.8,39.1,30.31,SE,142,0.0,0.0,64,0.00,,---,0.00,VWS V14.01,2013-03-27 04:55:00,